| time (UTC) | temp F | wind direction | speed knots | gust knots | rain 1hr in | rain 24hr in | rain mn in | humidity % | barometer mb |
| 20260504214504 | 76 | 239 | 7.0 | 9.6 | 0.00 | 0.00 | 0.00 | 24 | 997.6 |
| 20260504213004 | 78 | 186 | 7.8 | 13.9 | 0.00 | 0.00 | 0.00 | 22 | 997.5 |
| 20260504211501 | 77 | 148 | 9.6 | 19.1 | 0.00 | 0.00 | 0.00 | 24 | 997.6 |
| 20260504210109 | 76 | 189 | 12.2 | 20.9 | 0.00 | 0.00 | 0.00 | 24 | 997.6 |
| 20260504204609 | 77 | 212 | 7.8 | 15.6 | 0.00 | 0.00 | 0.00 | 24 | 997.8 |
| 20260504203108 | 78 | 219 | 8.7 | 14.8 | 0.00 | 0.00 | 0.00 | 22 | 997.7 |
| 20260504201557 | 80 | 271 | 0.9 | 7.8 | 0.00 | 0.00 | 0.00 | 21 | 997.8 |
| 20260504200055 | 81 | 150 | 1.7 | 7.0 | 0.00 | 0.00 | 0.00 | 20 | 998.1 |
| 20260504194600 | 78 | 174 | 0.9 | 7.8 | 0.00 | 0.00 | 0.00 | 22 | 998.3 |
| 20260504193051 | 78 | 101 | 7.0 | 10.4 | 0.00 | 0.00 | 0.00 | 22 | 998.6 |
| 20260504191547 | 76 | 112 | 1.7 | 8.7 | 0.00 | 0.00 | 0.00 | 25 | 998.9 |
| 20260504190106 | 75 | 116 | 0.9 | 10.4 | 0.00 | 0.00 | 0.00 | 26 | 999.3 |
| 20260504184542 | 76 | 163 | 4.3 | 8.7 | 0.00 | 0.00 | 0.00 | 26 | 999.6 |
| 20260504183039 | 77 | 249 | 2.6 | 9.6 | 0.00 | 0.00 | 0.00 | 26 | 1000.1 |
| 20260504181541 | 73 | 86 | 0.0 | 9.6 | 0.00 | 0.00 | 0.00 | 29 | 1000.2 |
| 20260504180034 | 75 | 119 | 3.5 | 7.0 | 0.00 | 0.00 | 0.00 | 27 | 1000.6 |
| 20260504174530 | 74 | 155 | 4.3 | 8.7 | 0.00 | 0.00 | 0.00 | 28 | 1000.8 |
| 20260504173027 | 72 | 263 | 6.1 | 10.4 | 0.00 | 0.00 | 0.00 | 30 | 1001.2 |
| 20260504171525 | 73 | 252 | 2.6 | 8.7 | 0.00 | 0.00 | 0.00 | 28 | 1001.3 |
| 20260504081524 | 66 | 180 | 3.5 | 7.8 | 0.00 | 0.00 | 0.00 | 36 | 1002.4 |
| 20260504050116 | 72 | 223 | 16.5 | 26.1 | 0.00 | 0.00 | 0.00 | 27 | 1002.6 |
| 20260504044600 | 74 | 226 | 9.6 | 21.7 | 0.00 | 0.00 | 0.00 | 19 | 1002.1 |
| 20260504043110 | 74 | 236 | 7.0 | 12.2 | 0.00 | 0.00 | 0.00 | 18 | 1001.8 |
| 20260504041558 | 74 | 342 | 7.0 | 17.4 | 0.00 | 0.00 | 0.00 | 17 | 1001.4 |
| 20260504040100 | 72 | 245 | 5.2 | 25.2 | 0.00 | 0.00 | 0.00 | 19 | 1001.8 |
| 20260504034600 | 70 | 261 | 0.0 | 1.7 | 0.00 | 0.00 | 0.00 | 22 | 1001.3 |
| 20260504033059 | 71 | 261 | 0.0 | 0.0 | 0.00 | 0.00 | 0.00 | 19 | 1001.2 |
| 20260504031604 | 72 | 262 | 0.0 | 2.6 | 0.00 | 0.00 | 0.00 | 20 | 1001.1 |
| 20260504030055 | 71 | 261 | 0.0 | 1.7 | 0.00 | 0.00 | 0.00 | 20 | 1001.1 |
| 20260504024556 | 73 | 257 | 1.7 | 4.3 | 0.00 | 0.00 | 0.00 | 28 | 1000.9 |
| 20260504023054 | 74 | 190 | 0.0 | 0.0 | 0.00 | 0.00 | 0.00 | 18 | 1000.8 |
| 20260504021554 | 75 | 190 | 0.0 | 0.0 | 0.00 | 0.00 | 0.00 | 16 | 1000.8 |
| 20260504020052 | 76 | 190 | 0.0 | 0.0 | 0.00 | 0.00 | 0.00 | 15 | 1000.9 |
| 20260504014558 | 77 | 190 | 0.0 | 0.0 | 0.00 | 0.00 | 0.00 | 15 | 1000.9 |
| 20260504013058 | 78 | 190 | 0.0 | 0.0 | 0.00 | 0.00 | 0.00 | 15 | 1001.1 |
| 20260504011551 | 78 | 190 | 0.0 | 2.6 | 0.00 | 0.00 | 0.00 | 14 | 1001.1 |
| 20260504010104 | 78 | 190 | 0.9 | 7.0 | 0.00 | 0.00 | 0.00 | 14 | 1001.2 |
| 20260504004548 | 79 | 173 | 2.6 | 7.0 | 0.00 | 0.00 | 0.00 | 14 | 1001.3 |
| 20260504003045 | 79 | 205 | 0.9 | 7.8 | 0.00 | 0.00 | 0.00 | 13 | 1001.7 |
| 20260504001556 | 80 | 196 | 1.7 | 7.0 | 0.00 | 0.00 | 0.00 | 14 | 1001.7 |
| 20260504000047 | 80 | 144 | 0.9 | 6.1 | 0.00 | 0.00 | 0.00 | 11 | 1001.8 |
| 20260503234543 | 80 | 123 | 0.0 | 3.5 | 0.00 | 0.00 | 0.00 | 12 | 1001.8 |
| 20260503233045 | 80 | 144 | 4.3 | 7.8 | 0.00 | 0.00 | 0.00 | 11 | 1002.0 |
| 20260503231543 | 81 | 146 | 5.2 | 13.0 | 0.00 | 0.00 | 0.00 | 11 | 1002.1 |
| 20260503230037 | 82 | 142 | 1.7 | 10.4 | 0.00 | 0.00 | 0.00 | 11 | 1002.4 |
| 20260503224540 | 84 | 184 | 6.1 | 9.6 | 0.00 | 0.00 | 0.00 | 11 | 1002.4 |
| 20260503223034 | 84 | 197 | 3.5 | 7.0 | 0.00 | 0.00 | 0.00 | 11 | 1002.6 |
| 20260503221535 | 83 | 138 | 3.5 | 9.6 | 0.00 | 0.00 | 0.00 | 9 | 1003.0 |
| 20260503220029 | 83 | 219 | 2.6 | 9.6 | 0.00 | 0.00 | 0.00 | 11 | 1003.4 |